{"data":{"norad_id":51629,"intl_designator":"2022-012H","name":"ONEWEB-0428","alt_names":[],"object_type":"PAYLOAD","status":"ACTIVE","operator":null,"country":"UK","launch_date":"2022-02-10","launch_site_code":"FRGUI","launch_vehicle":null,"mission":null,"orbit_class":"UNKNOWN","rcs_meters":null,"size_class":null,"mass_kg":null,"dimensions":null,"purposes":["comms"],"wikipedia_slug":null,"has_3d_model":false,"image_url":null,"decayed_at":null,"tle_current":{"epoch":"2026-05-25T04:19:50.630304Z","epoch_age_seconds":55463,"freshness":"FRESH","line1":"1 51629U 22012H   26145.18044711 -.00000028  00000+0 -11530-3 0  9998","line2":"2 51629  87.8848  40.8545 0001809  78.0640 282.0690 13.10370548206273","mean_motion":13.10370548,"eccentricity":0.0001809,"inclination_deg":87.8848,"raan_deg":40.8545,"arg_perigee_deg":78.064,"mean_anomaly_deg":282.069,"bstar":-0.0001153,"rev_number":20627,"period_min":109.89257978958,"perigee_km":1220.351108698,"apogee_km":1223.1007391039,"semimajor_km":7599.8629239009,"source":"CELESTRAK","updated_at":"2026-05-25T13:38:22.577331Z"}}}